Location: Newark
(51.3318°N, 0.0053°E)
Time: 10:02:11
(UTC+00:00)

deb r/b Ablestar - Visible Passes

Search period start: 26 November 2022 00:00
Search period end: 06 December 2022 00:00
Orbit: 696 x 798 km, 66.8° (Epoch: 25 November)

Date Brightness Start Highest point End Pass type
(mag) Time Alt. Az. Time Alt. Az. Time Alt. Az.
26 Nov ? 17:27:50 10° NW 17:32:43 37° WSW 17:37:40 10° S visible
27 Nov ? 16:43:42 10° NW 16:48:58 58° WSW 16:54:18 10° SSE visible
27 Nov ? 18:29:15 10° W 18:30:24 11° WSW 18:31:32 10° WSW visible
28 Nov ? 17:43:19 10° WNW 17:46:55 18° WSW 17:50:33 10° SSW visible
29 Nov ? 06:39:43 10° SSE 06:43:27 21° ESE 06:47:16 10° ENE visible
29 Nov ? 16:58:43 10° NW 17:03:19 29° WSW 17:07:58 10° S visible
30 Nov ? 05:57:52 10° SE 05:59:57 13° ESE 06:02:03 10° E visible
01 Dec ? 06:52:54 10° S 06:57:40 43° ESE 07:02:34 10° NE visible
01 Dec ? 17:14:36 10° WNW 17:17:25 14° WSW 17:20:14 10° SW visible
02 Dec ? 06:09:48 10° SSE 06:13:58 27° ESE 06:18:16 10° NE visible
02 Dec ? 16:29:39 10° WNW 16:33:53 24° WSW 16:38:07 10° SSW visible
03 Dec ? 05:27:20 10° SE 05:30:25 16° ESE 05:33:32 10° ENE visible
03 Dec ? 07:07:03 10° SW 07:12:06 87° SE 07:17:22 10° NE visible
04 Dec ? 06:23:20 10° SSW 06:28:15 55° ESE 06:33:21 10° NE visible
04 Dec ? 16:46:27 10° W 16:47:53 11° WSW 16:49:18 10° WSW visible
05 Dec ? 05:40:00 10° S 05:44:31 34° ESE 05:49:10 10° NE visible
